Location: Brac
(44.2539°N, 6.6574°E)
Time: 05:22:12
(UTC+00:00)

Daily predictions for brighter satellites

Satellite Brightness Start Highest point End
(mag) Time Altitude Azimuth Time Altitude Azimuth Time Altitude Azimuth
SL-16 R/B 4.3 01:09:58 24° N 01:09:58 24° N 01:12:21 10° N
ADEOS II 4.4 01:15:35 10° NNE 01:17:15 20° NE 01:17:15 20° NE
SL-16 R/B 4.5 01:48:08 15° NNW 01:48:08 15° NNW 01:49:42 10° N
CZ-2D R/B 4.1 01:48:30 10° N 01:50:21 21° N 01:50:21 21° N
Resurs 1-4 Rocket 4.2 02:00:12 10° N 02:01:49 19° N 02:01:49 19° N
ALOS 4.3 02:02:21 10° NE 02:05:41 23° E 02:05:41 23° E
IDEFIX/ARIANE 42P 4.1 02:33:16 10° N 02:35:50 26° NNW 02:35:50 26° NNW
ATLAS 5 CENTAUR R/B 4.2 02:40:34 11° N 02:40:34 11° N 02:41:09 10° N
Meteor 2-11 Rocket 4.4 02:39:39 70° SSE 02:40:15 78° E 02:46:23 10° N
Cosmos 2239 Rocket 4.4 02:41:02 71° NW 02:41:02 71° NW 02:46:42 10° N
Cosmos 1833 Rocket 4.4 02:38:02 17° SSE 02:41:06 27° ESE 02:45:46 10° NE
Cosmos 1821 Rocket 4.4 02:45:35 48° NW 02:45:35 48° NW 02:50:37 10° N
CZ-2C R/B 3.3 02:39:53 10° NNE 02:44:44 45° E 02:45:49 39° SE
Cosmos 2251 Rocket 4.0 02:40:02 10° NNW 02:45:15 59° ENE 02:50:25 10° SE
Cosmos 2123 Rocket 3.9 02:48:07 10° N 02:54:23 88° W 02:57:13 35° S
FENGYUN 3A 3.5 02:49:21 10° NNE 02:54:46 85° ESE 02:55:11 76° S
ADEOS II 3.8 02:55:48 10° N 02:58:10 21° NNW 02:58:10 21° NNW
Cosmos 1151 Rocket 4.4 02:59:57 24° SE 03:01:49 37° E 03:05:46 10° NNE
Cosmos 1140 Rocket 4.0 02:57:28 10° NNW 03:02:37 59° ENE 03:07:44 10° SE
Sich 1 3.2 02:59:41 10° N 03:03:59 68° E 03:04:07 67° E
Cosmos 1697 Rocket 4.1 02:59:11 10° NNW 03:04:26 37° NE 03:09:38 10° ESE
Cosmos 1934 Rocket 3.9 03:08:35 51° SW 03:10:09 70° W 03:16:30 10° N
IRS-1D 4.1 03:06:00 10° N 03:10:32 44° NW 03:10:32 44° NW
Cosmos 1535 Rocket 4.3 03:09:08 42° SSW 03:11:21 82° W 03:17:30 10° N
Cosmos 1605 Rocket 4.0 03:08:56 23° S 03:12:56 79° E 03:19:02 10° N
CBERS-1 3.9 03:07:52 10° N 03:12:59 71° WNW 03:13:28 66° WSW
ATLAS CENTAUR R/B 4.0 03:11:55 10° SSE 03:15:29 21° ESE 03:19:07 10° ENE
Cosmos 2084 4.1 03:17:23 42° SSE 03:17:23 42° SSE 03:20:16 10° SSE
USA 305 3.6 03:18:17 41° SSE 03:18:41 43° SE 03:22:37 10° ENE
CZ-2C R/B 3.1 03:17:14 10° SSE 03:22:19 61° ENE 03:27:32 10° N
METEOR-M 4.2 03:20:38 10° NNE 03:26:01 80° ESE 03:29:55 19° S
IRS-P3 4.2 03:26:32 10° NNE 03:31:55 78° ESE 03:36:42 13° S
PAYLOAD A 3.8 03:28:15 10° N 03:32:59 66° WNW 03:34:35 41° SW
Cosmos 407 Rocket 3.4 03:29:50 10° NNW 03:35:10 82° WSW 03:40:31 10° SSE
Tiangong -0.7 03:38:03 29° SSE 03:38:03 29° SSE 03:40:05 10° SE
Atlas Centaur 2 4.0 03:36:13 21° SSW 03:39:18 26° S 03:44:57 10° ESE
CZ-2D R/B 3.6 03:36:43 10° NNE 03:40:39 66° ESE 03:44:05 13° S
BREEZE-M DEB (TANK) 2.6 03:41:11 37° NNW 03:41:54 49° NNE 03:47:03 10° E
Meteor 1-29 4.4 03:39:21 10° NNE 03:42:26 36° E 03:45:30 10° SSE
Cosmos 1980 Rocket 3.7 03:37:44 10° NNW 03:42:56 37° NE 03:48:06 10° ESE
X-37B 0.9 03:43:15 49° SE 03:43:15 49° SE 03:45:51 10° E
Meteor 1-14 Rocket 4.4 03:37:35 10° NNW 03:43:22 54° W 03:48:59 10° S
ALOS 2.7 03:39:16 10° N 03:43:35 39° WNW 03:44:08 37° W
Cosmos 1656 3.7 03:38:01 10° NNW 03:43:37 56° WSW 03:49:08 10° S
USA 307 3.0 03:51:03 30° SSW 03:52:56 65° SE 03:57:04 10° ENE
H-2A R/B 4.1 03:50:25 10° NNE 03:53:50 37° E 03:57:14 10° SSE
Helios 1B rocket 2.7 03:50:35 10° N 03:54:28 44° WNW 03:55:38 34° WSW
ARIANE 5 R/B 2.4 03:51:13 10° N 03:56:14 67° WNW 04:00:51 12° SSW
Meteor 1-11 Rocket 3.8 03:54:18 10° N 04:00:19 87° WSW 04:06:17 10° S
SL-08 R/B 3.2 03:56:11 10° SSE 04:00:48 82° WSW 04:05:32 10° NNW
GP-B 4.1 03:59:25 10° SSE 04:03:41 50° E 04:07:58 10° N
Cosmos 1633 Rocket 2.9 04:00:42 10° NNW 04:05:02 67° W 04:09:19 10° S
USA 306 2.7 04:05:17 26° WSW 04:07:30 83° NW 04:11:39 10° NE
Cosmos 1484 Rocket 2.8 04:05:03 10° N 04:08:57 58° WNW 04:12:51 10° SSW
Cosmos 676 Rocket 4.1 04:06:24 10° NNW 04:11:38 83° ENE 04:16:53 10° SSE
CZ-3 R/B 4.2 03:53:52 11° SW 04:12:10 30° S 04:19:24 10° ESE
Cosmos 2098 Rocket 2.3 04:11:56 10° NNW 04:14:40 41° W 04:17:29 10° SSW
Cosmos 1666 Rocket 3.9 04:10:30 10° NNW 04:14:44 43° W 04:18:58 10° SSW
Cosmos 1624 Rocket 4.0 04:11:07 10° SSW 04:16:20 65° WNW 04:21:40 10° NNE
Cosmos 2360 4.2 04:10:49 10° NNW 04:16:29 65° WSW 04:22:06 10° SSE
Meteor 1-4 Rocket 2.4 04:15:48 10° NNW 04:19:24 71° W 04:23:01 10° S
Cosmos 2100 Rocket 3.9 04:13:57 10° S 04:20:06 83° W 04:26:17 10° N
CZ-2C R/B 3.3 04:14:18 10° NNE 04:20:09 89° ESE 04:25:47 10° SSW
Cosmos 1328 Rocket 3.7 04:16:36 10° SSW 04:20:50 50° WNW 04:25:07 10° N
USA 234 3.3 04:15:27 10° NE 04:22:02 88° NW 04:28:35 10° SW
CZ-2C R/B 3.6 04:18:39 10° NNW 04:22:38 24° WNW 04:25:10 16° WSW
BREEZE-M DEB (TANK) 2.6 04:20:00 13° WNW 04:24:29 86° SSW 04:26:55 10° ESE
Cosmos 1833 Rocket 3.0 04:19:47 12° SW 04:24:44 48° WNW 04:30:13 10° NNE
Meteor 2-13 Rocket 4.4 04:18:40 10° N 04:24:49 81° W 04:30:57 10° S
Cosmos 1515 4.4 04:24:00 12° SW 04:27:02 32° WNW 04:30:26 10° N
USA 308 2.8 04:24:31 16° WSW 04:27:41 72° NW 04:31:51 10° NE
CZ-2C R/B 1.8 04:26:35 10° NNW 04:28:42 54° W 04:32:47 10° S
Envisat 3.0 04:23:56 10° N 04:28:56 59° WNW 04:33:54 10° SSW
Cosmos 1371 Rocket 4.3 04:24:12 10° SW 04:29:18 47° WNW 04:34:23 10° N
ERBS 3.3 04:28:10 17° WNW 04:29:33 25° NNW 04:32:02 10° NNE
Cosmos 1536 3.1 04:28:33 10° NNW 04:32:24 43° W 04:36:13 10° SSW
Cosmos 2016 Rocket 4.3 04:26:21 10° S 04:32:40 77° E 04:39:03 10° N
Meteor 1-19 Rocket 4.4 04:27:33 10° S 04:33:01 76° E 04:38:26 10° NNE
PSLV R/B 3.5 04:29:07 10° NNE 04:33:30 85° W 04:37:47 10° SSW
COSMOS 2406 3.2 04:28:02 10° SSW 04:33:42 75° WNW 04:39:24 10° NNE
Cosmos 2082 Rocket 2.2 04:29:19 10° SSW 04:34:56 87° ESE 04:40:35 10° NNE
Cosmos 1515 Rocket 3.6 04:34:28 10° SSW 04:38:50 63° W 04:43:16 10° N
Cosmos 44 Rocket 3.4 04:34:28 10° SSW 04:39:11 75° ESE 04:43:54 10° NE
YAOGAN 6 3.5 04:36:19 10° N 04:39:29 28° WNW 04:42:38 10° SW
Cosmos 1151 Rocket 4.4 04:36:50 12° WSW 04:39:30 20° WNW 04:42:38 10° NNW
Cosmos 375 4.4 04:39:55 10° SW 04:43:44 70° NW 04:48:12 10° NE
Cosmos 1470 Rocket 3.9 04:41:38 10° NNW 04:45:42 40° W 04:49:45 10° SSW
Cosmos 1697 Rocket 3.2 04:43:14 10° NW 04:48:21 36° WSW 04:53:26 10° S
Cosmos 1346 Rocket 4.1 04:48:20 10° WSW 04:51:26 21° WNW 04:54:33 10° NNW
Cosmos 1461 4.5 04:50:09 10° S 04:53:47 36° ESE 04:57:35 10° NE
ATLAS CENTAUR R/B 1.9 04:49:06 10° SW 04:53:51 57° NW 04:58:40 10° NNE
BREEZE M DEB (TANK) 3.6 04:41:07 10° WSW 04:54:22 85° NNW 04:58:04 10° ENE
Cosmos 1850 Rocket 4.3 04:50:42 10° NNW 04:56:03 79° ENE 05:01:24 10° SSE
Cosmos 1743 4.0 04:54:36 10° NW 04:57:26 20° W 05:00:16 10° SW
USA 305 3.5 04:54:12 10° W 04:58:06 40° NNW 05:02:00 10° NE
BREEZE-M DEB (TANK) 2.5 04:57:23 10° WNW 04:59:55 46° NNE 05:02:21 10° E
CZ-2C R/B 3.1 04:56:27 10° N 04:59:58 40° WNW 05:03:32 10° SW
Cosmos 2056 Rocket 4.4 04:55:38 10° WSW 05:00:02 28° WNW 05:04:27 10° N
Tsikada Rocket 4.1 04:54:31 10° N 05:00:54 88° E 05:07:10 10° S
Meteor 1-27 Rocket 4.4 04:57:30 10° SW 05:02:43 35° WNW 05:08:04 10° N
